CZ-2C R/B, 43521

Orbit data source: Space-Track

CZ-2C R/B, 43521 is space debris in LEO originally from a launch on Wed, 27 Jun 2018 UTC launched from the Xichang Space Center, China (XSC). Debris objects in space refer to the collection of defunct objects orbiting the Earth. Examples of debris include non-operational satellites, rocket bodies, and fragments generated from explosions, collisions, or faulty payload assembly.

Loading next visibility...
CZ-2C R/B details
Identifier
43521, 2018-054D
Orbit
LEO
Last TLE update7 hours ago
Origin
Flag of CNCASC (CN / PRC)
ManufacturerCALT
MissionSpacecraft
Bus & MotorCZ-2 STAGE 2, Unknown motor
Mass~3,800 kg wet, ~3,800 kg dry
Launch date (UTC)
2018-06-27 (7 years ago)
Launch vehicleUnknown
Launch site
Xichang Space Center, China (XSC)
Object type
Payload
Rocket body
Debris
Shape & HBRCyl, 7.49 m
Radar Cross Section23.715 m², Large (>1 m²)

Expand to show TLE details & history

TLE from 7 hours ago
0 CZ-2C R/B
1 43521U 18054D   24361.22993179  .00034225  00000-0  81572-3 0  9993
2 43521  35.1434 331.6790 0041372  84.8959 275.6484 15.39672283360366
Epoch: 2024-12-26T05:31Z
Definitive object data (Epoch: 2024-12-26T05:31:06.106Z)
Latitude-0.00001°
Longitude153.69123°
Altitude443.329 km
Speed7.65 km/s
True Right ascension22h 06m 42s
True Declination0° 00' 00"
Sunlit
Object was in daylight at TLE epoch
Visualization TLE readout
Latitude-23.9477°
Longitude10.62292°
Altitude472.459 km
Speed7.619 km/s
Apparent Right ascension14h 12m 58s
Apparent Declination-77° 13' 52"
Sunlit
Object is in daylight
Visualization observer readout
Local Sidereal Time12:04:08
Azimuth172.272° S
Elevation-28.84°
Doppler factor1
Orbital elements
Apogee altitude478.579 km
Perigee altitude422.078 km
Semi-major axis6,828.466 km
Eccentricity0.0041372
Inclination35.1434°
RAAN331.679°
Arg. of periapsis84.8959°
True anomaly275.17638°
Mean anomaly275.6484°
Eccentric anomaly275.41241°
Mean motion3.84644 °/min
BSTAR0.00081572
Orbital period93.59 mins
Loading maneuver chart data...
Loading historical data...
Loading historical data...
Loading historical data...
Loading historical data...
Loading historical data...
Loading historical data...
Loading historical data...
Other satellites on launch #54 in the year 2018 (2018-06-27 UTC)

CZ-2C R/B Visibility forecast

Observer location: undefined°, undefined

Span
Click to sort rows by Start time (UTC) header in descending order
Start Az.
Max El. time (UTC)
Max El. Az.
Max El.
End time (UTC)
End Az.
4 mins2024-12-27 03:37:35.385Z228.722° WSW2024-12-27 03:39:35.385Z171.855° S28.531°2024-12-27 03:41:35.385Z117.935° SE
4 mins2024-12-27 05:16:35.385Z228.689° WSW2024-12-27 05:17:35.385Z198.572° SSW26.353°2024-12-27 05:20:35.385Z128.134° SE
|